Meteo pe oră la Dabki

Astăzi, 11 Aprilie, Duminică

Timp Temperatura Precipitaţii Vânt Presiune Umiditate
00:00 +4°C° 0 mm 2 m/s 754 mmHg 95%
01:00 +4°C° 0 mm 2 m/s 754 mmHg 95%
02:00 +4°C° 0 mm 3 m/s 753 mmHg 96%
03:00 +4°C° 0 mm 3 m/s 753 mmHg 96%
04:00 +4°C° 0 mm 4 m/s 753 mmHg 96%
05:00 +5°C° 0 mm 4 m/s 753 mmHg 94%
06:00 +5°C° 0 mm 4 m/s 752 mmHg 92%
07:00 +6°C° 0 mm 5 m/s 752 mmHg 91%
08:00 +8°C° 0 mm 5 m/s 752 mmHg 82%
09:00 +10°C° 0 mm 6 m/s 752 mmHg 73%
10:00 +13°C° 0 mm 6 m/s 751 mmHg 64%
11:00 +14°C° 0 mm 6 m/s 751 mmHg 60%
12:00 +15°C° 0 mm 6 m/s 751 mmHg 56%
13:00 +16°C° 0 mm 6 m/s 750 mmHg 52%
14:00 +16°C° 0 mm 7 m/s 750 mmHg 54%
15:00 +16°C° 0 mm 7 m/s 750 mmHg 56%
16:00 +16°C° 0 mm 7 m/s 750 mmHg 58%
17:00 +14°C° 0 mm 6 m/s 750 mmHg 64%
18:00 +13°C° 0 mm 5 m/s 750 mmHg 70%
19:00 +11°C° 0 mm 4 m/s 750 mmHg 76%
20:00 +11°C° 0 mm 4 m/s 750 mmHg 78%
21:00 +10°C° 0 mm 4 m/s 750 mmHg 79%
22:00 +8°C° 0 mm 4 m/s 750 mmHg 81%
23:00 +8°C° 0 mm 4 m/s 750 mmHg 81%

Mâine, 12 Aprilie, Luni

Timp Temperatura Precipitaţii Vânt Presiune Umiditate
00:00 +8°C° 0 mm 4 m/s 750 mmHg 82%
01:00 +7°C° 0 mm 4 m/s 751 mmHg 82%
02:00 +8°C° 0 mm 3 m/s 751 mmHg 83%
03:00 +8°C° 0 mm 3 m/s 751 mmHg 83%
04:00 +8°C° 0 mm 3 m/s 751 mmHg 84%
05:00 +8°C° 0 mm 3 m/s 752 mmHg 85%
06:00 +6°C° 0 mm 4 m/s 752 mmHg 85%
07:00 +6°C° 0 mm 5 m/s 753 mmHg 86%
08:00 +6°C° 0.1 mm 5 m/s 753 mmHg 84%
09:00 +5°C° 0.1 mm 5 m/s 754 mmHg 82%
10:00 +3°C° 0.1 mm 5 m/s 755 mmHg 80%
11:00 +3°C° 0.5 mm 5 m/s 755 mmHg 77%
12:00 +3°C° 0.5 mm 5 m/s 755 mmHg 75%
13:00 +5°C° 0.5 mm 5 m/s 756 mmHg 73%
14:00 +3°C° 0.5 mm 5 m/s 756 mmHg 73%
15:00 +3°C° 0.5 mm 5 m/s 756 mmHg 74%
16:00 +3°C° 0.5 mm 5 m/s 757 mmHg 74%
17:00 +4°C° 0.2 mm 4 m/s 757 mmHg 74%
18:00 +4°C° 0.2 mm 3 m/s 758 mmHg 74%
19:00 +3°C° 0.2 mm 3 m/s 758 mmHg 75%
20:00 +3°C° 0 mm 3 m/s 758 mmHg 74%
21:00 +4°C° 0 mm 2 m/s 759 mmHg 74%
22:00 +3°C° 0 mm 2 m/s 759 mmHg 74%
23:00 +3°C° 0 mm 2 m/s 759 mmHg 75%

Poimâine, 13 Aprilie, Marţi

Timp Temperatura Precipitaţii Vânt Presiune Umiditate
00:00 +3°C° 0 mm 2 m/s 759 mmHg 75%
01:00 +2°C° 0 mm 2 m/s 759 mmHg 75%
02:00 +2°C° 0 mm 2 m/s 759 mmHg 74%
03:00 +2°C° 0 mm 2 m/s 760 mmHg 72%
04:00 +2°C° 0 mm 2 m/s 760 mmHg 71%
05:00 +3°C° 0 mm 2 m/s 760 mmHg 69%
06:00 +3°C° 0 mm 2 m/s 760 mmHg 68%
07:00 +3°C° 0 mm 3 m/s 760 mmHg 67%
08:00 +4°C° 0 mm 3 m/s 760 mmHg 59%
09:00 +5°C° 0 mm 3 m/s 761 mmHg 51%
10:00 +6°C° 0 mm 4 m/s 761 mmHg 43%
11:00 +7°C° 0 mm 4 m/s 761 mmHg 40%
12:00 +7°C° 0 mm 4 m/s 760 mmHg 37%
13:00 +8°C° 0 mm 4 m/s 760 mmHg 34%
14:00 +8°C° 0 mm 4 m/s 760 mmHg 35%
15:00 +8°C° 0 mm 4 m/s 760 mmHg 36%
16:00 +8°C° 0 mm 4 m/s 759 mmHg 38%
17:00 +7°C° 0 mm 4 m/s 760 mmHg 44%
18:00 +6°C° 0 mm 4 m/s 760 mmHg 50%
19:00 +5°C° 0 mm 4 m/s 760 mmHg 57%
20:00 +4°C° 0 mm 3 m/s 760 mmHg 60%
21:00 +4°C° 0 mm 3 m/s 760 mmHg 63%
22:00 +4°C° 0 mm 2 m/s 760 mmHg 66%
23:00 +4°C° 0 mm 2 m/s 760 mmHg 68%

14 Aprilie, Miercuri

Timp Temperatura Precipitaţii Vânt Presiune Umiditate
00:00 +3°C° 0 mm 2 m/s 760 mmHg 69%
01:00 +3°C° 0 mm 2 m/s 760 mmHg 71%
02:00 +3°C° 0 mm 2 m/s 760 mmHg 73%
03:00 +2°C° 0 mm 2 m/s 760 mmHg 75%
04:00 +1°C° 0 mm 3 m/s 760 mmHg 77%
05:00 +2°C° 0 mm 3 m/s 760 mmHg 76%
06:00 +2°C° 0 mm 3 m/s 760 mmHg 75%
07:00 +3°C° 0 mm 4 m/s 760 mmHg 74%
08:00 +4°C° 0 mm 4 m/s 760 mmHg 68%
09:00 +5°C° 0 mm 4 m/s 760 mmHg 62%
10:00 +6°C° 0 mm 4 m/s 759 mmHg 57%
11:00 +7°C° 0 mm 4 m/s 759 mmHg 53%
12:00 +7°C° 0 mm 5 m/s 759 mmHg 49%
13:00 +8°C° 0 mm 5 m/s 759 mmHg 45%
14:00 +8°C° 0 mm 5 m/s 759 mmHg 47%
15:00 +8°C° 0 mm 5 m/s 759 mmHg 49%
16:00 +7°C° 0 mm 6 m/s 759 mmHg 50%
17:00 +5°C° 0 mm 6 m/s 759 mmHg 52%
18:00 +5°C° 0 mm 5 m/s 759 mmHg 53%
19:00 +3°C° 0 mm 5 m/s 759 mmHg 55%
20:00 +2°C° 0 mm 5 m/s 759 mmHg 58%
21:00 +2°C° 0 mm 5 m/s 760 mmHg 62%
22:00 +1°C° 0 mm 5 m/s 760 mmHg 66%
23:00 +1°C° 0 mm 5 m/s 759 mmHg 67%

15 Aprilie, Joi

Timp Temperatura Precipitaţii Vânt Presiune Umiditate
00:00 0°C° 0 mm 5 m/s 759 mmHg 68%
01:00 0°C° 0 mm 5 m/s 759 mmHg 69%
02:00 0°C° 0 mm 5 m/s 759 mmHg 70%
03:00 0°C° 0 mm 5 m/s 759 mmHg 71%
04:00 0°C° 0 mm 5 m/s 759 mmHg 71%
05:00 -1°C° 0 mm 6 m/s 759 mmHg 71%
06:00 +1°C° 0 mm 6 m/s 759 mmHg 71%
07:00 +1°C° 0 mm 6 m/s 759 mmHg 71%
08:00 +2°C° 0 mm 7 m/s 759 mmHg 66%
09:00 +3°C° 0 mm 7 m/s 759 mmHg 61%
10:00 +5°C° 0 mm 8 m/s 759 mmHg 56%
11:00 +5°C° 0 mm 8 m/s 759 mmHg 52%
12:00 +6°C° 0 mm 8 m/s 759 mmHg 48%
13:00 +6°C° 0 mm 8 m/s 759 mmHg 44%
14:00 +6°C° 0 mm 8 m/s 759 mmHg 46%
15:00 +6°C° 0 mm 7 m/s 759 mmHg 49%
16:00 +6°C° 0 mm 7 m/s 759 mmHg 51%
17:00 +5°C° 0 mm 7 m/s 759 mmHg 53%
18:00 +5°C° 0 mm 6 m/s 760 mmHg 54%
19:00 +4°C° 0 mm 6 m/s 760 mmHg 56%
20:00 +3°C° 0 mm 5 m/s 760 mmHg 59%
21:00 +3°C° 0 mm 5 m/s 760 mmHg 63%
22:00 +2°C° 0 mm 5 m/s 760 mmHg 67%
23:00 +3°C° 0 mm 4 m/s 760 mmHg 71%

16 Aprilie, Vineri

Timp Temperatura Precipitaţii Vânt Presiune Umiditate
00:00 +1°C° 0 mm 4 m/s 760 mmHg 76%
01:00 0°C° 0 mm 4 m/s 760 mmHg 81%
02:00 0°C° 0 mm 4 m/s 760 mmHg 83%
03:00 0°C° 0 mm 4 m/s 760 mmHg 86%
04:00 -1°C° 0 mm 4 m/s 760 mmHg 88%
05:00 0°C° 0 mm 4 m/s 760 mmHg 84%
06:00 +1°C° 0 mm 5 m/s 760 mmHg 80%
07:00 +2°C° 0 mm 5 m/s 760 mmHg 76%
08:00 +3°C° 0 mm 5 m/s 761 mmHg 74%
09:00 +5°C° 0 mm 5 m/s 761 mmHg 71%
10:00 +5°C° 0 mm 5 m/s 761 mmHg 69%
11:00 +5°C° 0 mm 5 m/s 761 mmHg 71%
12:00 +5°C° 0 mm 5 m/s 761 mmHg 72%
13:00 +5°C° 0 mm 5 m/s 761 mmHg 74%
14:00 +4°C° 0.1 mm 4 m/s 761 mmHg 80%
15:00 +3°C° 0.1 mm 4 m/s 761 mmHg 86%
16:00 +1°C° 0.1 mm 4 m/s 762 mmHg 93%
17:00 +1°C° 0.3 mm 4 m/s 762 mmHg 94%
18:00 +2°C° 0.3 mm 3 m/s 762 mmHg 95%
19:00 +2°C° 0.3 mm 3 m/s 762 mmHg 96%
20:00 +2°C° 0.1 mm 3 m/s 762 mmHg 95%
21:00 +3°C° 0.1 mm 3 m/s 762 mmHg 95%
22:00 +3°C° 0.1 mm 3 m/s 763 mmHg 94%
23:00 +3°C° 0.1 mm 3 m/s 763 mmHg 95%
Arată mai mult

Formular de consimțământ

Meteoprog și furnizorii noștri de servicii pot stoca și accesa date personale, precum cookies, identificatori de dispozitiv sau alte tehnologii similare pe dispozitivul dumneavoastră și procesa astfel de date pentru a personaliza conținutul și reclamele, dar și pentru a oferi caracteristici de social media și pentru a analiza traficul.

  • Stocarea și/sau accesarea informațiilor pe dispozitivul dumneavoastră

    Cookies, identificatori de dispozitiv sau alte informații pot fi stocate sau accesate pe dispozitiv în scopurile indicate mai sus.

  • Reclame și conținut personalizat, evaluarea reclamelor și a conținutului, informații despre audiențe și dezvoltarea produselor

    Reclamele și conținutul pot fi personalizate pe baza unui profil. Pot fi adăugate date suplimentare pentru a personaliza mai bine reclamele și conținutul. Performanța reclamelor și conținutului poate fi măsurată. Pot fi obținute informații despre utilizatorii care au văzut reclamele și conținutul. Aceste date pot fi utilizate pentru a dezvolta sau îmbunătăți experiența utilizatorilor, sistemele și software-ul.

Dând clic pe ‘Sunt de acord’, permiteți utilizarea cookie-urilor menționate, a identificatorilor de dispozitiv, balizelor web sau altor tehnologii similare. Setările pot fi modificate din browser-ul dispozitivului dumneavoastră.

În anumite scopuri, interesele legitime pot prima asupra consimțământului. Puteți citi mai multe informații în acest sens în Politica privind Confidențialitatea Datelor și Cookie.